Regional Weather Roundup
Issued by NWS Goodland, KS

Home | Current Version | Previous Version | Graphics & Text | Print | Product List | Glossary On
Versions: 1 2 3 4 5 6 7 8 9 10 11 12 13 14 15 16 17 18 19 20 21 22 23 24 25 26 27 28 29 30 31 32 33 34 35 36 37 38 39 40 41 42 43 44 45 46 47 48 49 50
944
ASUS43 KGLD 242359
RWRGLD

GOODLAND FORECAST AREA HOURLY WEATHER ROUNDUP
NATIONAL WEATHER SERVICE GOODLAND KS
600 PM MDT WED AUG 24 2016

...OFFICIAL OBSERVATIONS...

CITY           SKY/WX    TMP DP  RH WIND       PRES   REMARKS
GOODLAND KS    CLOUDY    67  43  41 NE14      30.15F
HILL CITY KS   CLOUDY    69  53  56 NE12      30.11S
IMPERIAL NEB   CLOUDY    74  41  30 SE13      30.13F
MCCOOK NEB     PTSUNNY   71  47  42 E8        30.12F
AKRON CO       CLOUDY    70  35  27 SE9       30.19S
BURLINGTON CO  CLOUDY    69  37  30 E16       30.18S
LIMON CO       SUNNY     69  34  27 E16       30.21S
$$

...UNOFFICIAL OBSERVATIONS...

CITY           SKY/WX    TMP DP  RH WIND       PRES   REMARKS
COLBY KS       PTSUNNY   72  46  40 NE14      30.14F
NORTON KS      CLOUDY    70  45  40 NE9       30.12R
SHARON SPRINGS   N/A     72  44  35 NE14G22     N/A
KIT CARSON CO    N/A     74  37  26 MISG        N/A
YUMA CO          N/A     70  40  33 E10         N/A
$$




USA.gov is the U.S. government's official web portal to all federal, state and local government web resources and services.